[[{"header":{"parameterUnit":"m.s-1","parameterCategory":1,"la1":30.2991,"la2":30.254,"lo1":-89.0895,"lo2":-89.0444,"dy":0.0017,"dx":0.0017,"nx":28,"ny":28,"refTime":"2024-08-29T09:00:00:Z","depth":0,"parameterNumber":2,"parameterNumberName":"U-component_of_WINDS"},"data":[0,0,0,0,0,0,0,0,0,0,0,0,0,0,0,0,0,0,0,0,0,0,0,0,0,0,0,0,0,0,0,0,0,0,0,0,0,0,0,0,0,0,0,0,0,0,0,0,0,0,0,0,0,0,0,0,0,0,-3.4868,-3.4868,0,-3.4918,-3.4918,-3.4919,-3.4868,-3.4867,-3.4865,-3.4863,-3.4911,-3.4914,-3.4917,0,0,0,0,0,0,0,0,0,0,0,0,0,-3.4725,-3.4727,-3.4868,-3.4868,-3.4869,-3.4918,-3.4918,-3.4919,-3.4869,-3.4866,-3.4864,-3.4862,-3.491,-3.4914,-3.4917,0,0,0,0,0,0,0,0,0,0,0,0,0,-3.4782,-3.4728,-3.4867,-3.485,-3.4849,-3.4917,-3.4918,-3.4919,-3.4869,-3.4866,-3.4863,-3.4861,-3.4909,-3.4913,-3.4918,-3.5006,0,0,-3.4932,-3.4934,0,0,0,0,0,0,0,0,-3.4779,-3.4787,-3.4852,-3.4851,-3.485,-3.4884,-3.4885,-3.4948,-3.487,-3.4861,-3.4863,-3.4859,-3.4904,-3.4909,-3.4925,-3.5008,-3.501,-3.4933,-3.4935,-3.4938,-3.4939,0,0,0,0,0,0,0,-3.4775,-3.4785,-3.4887,-3.4853,-3.4852,-3.4838,-3.4843,-3.4897,-3.4899,-3.4862,-3.4858,-3.4865,-3.4903,-3.492,-3.4926,-3.5011,-3.4933,-3.4937,-3.494,-3.4941,-3.5166,-3.5169,0,0,0,0,0,0,-3.4773,-3.4782,-3.4886,-3.4889,-3.4806,-3.4843,-3.4848,-3.4876,-3.4898,-3.4898,-3.4868,-3.4863,-3.4914,-3.492,-3.4927,-3.5029,-3.4937,-3.4942,-3.4945,-3.5163,-3.5167,-3.517,0,0,0,0,0,0,-3.477,-3.4783,-3.4884,-3.4834,-3.4846,-3.4849,-3.488,-3.4878,-3.4896,-3.4902,-3.4902,-3.4885,-3.4912,-3.4921,-3.4986,-3.503,-3.4944,-3.4948,-3.5159,-3.5164,-3.5168,-3.5235,0,0,0,0,0,0,-3.4766,-3.4782,-3.4817,-3.4836,-3.4849,-3.4943,-3.4883,-3.4882,-3.4904,-3.4898,-3.4919,-3.4919,-3.491,-3.4979,-3.4991,-3.5035,-3.4952,-3.5155,-3.5161,-3.5167,-3.5229,-3.5242,-3.5252,0,0,0,0,0,-3.4762,-3.4833,-3.4819,-3.4831,-3.4892,-3.4946,-3.4953,-3.4942,-3.4908,-3.4942,-3.4946,-3.4919,-3.5024,-3.4987,-3.4999,-3.5045,-3.5152,-3.5159,-3.5166,-3.5224,-3.5239,-3.5252,0,0,0,0,0,0,-3.4819,-3.4836,-3.4819,-3.49,-3.4922,-3.4937,-3.4979,-3.4959,-3.4991,-3.4984,-3.4968,-3.4973,-3.5042,-3.5051,-3.5009,-3.513,-3.5082,-3.5092,-3.5122,-3.5136,-3.5148,-3.5143,-3.4956,0,0,0,0,0,-3.4841,-3.4884,-3.4896,-3.4966,-3.4978,-3.4977,-3.5,-3.499,-3.5012,-3.502,-3.5029,-3.505,-3.5088,-3.5113,-3.5148,-3.5231,-3.5233,-3.5269,-3.528,-3.529,-3.5298,-3.5339,-3.5355,-3.5193,-3.5193,-3.5193,0,0,-3.4887,-3.4901,-3.4929,-3.4978,-3.4994,-3.5037,-3.4985,-3.5034,-3.5066,-3.5027,-3.5089,-3.5097,-3.5119,-3.5193,-3.5226,-3.5202,-3.5343,-3.5299,-3.5307,-3.5309,-3.5348,-3.5364,-3.5377,-3.5198,-3.5197,-3.5196,0,0,-3.4992,-3.5009,-3.5067,-3.5084,-3.5109,-3.5108,-3.5122,-3.5141,-3.5144,-3.5207,-3.5178,-3.5215,-3.5281,-3.5298,-3.5315,-3.5426,-3.5401,-3.5438,-3.5498,-3.5539,-3.5551,-3.5562,-3.5599,-3.5613,-3.5446,-3.5446,-3.5446,0,-3.5045,-3.5111,-3.51,-3.515,-3.5171,-3.514,-3.5198,-3.5214,-3.5249,-3.5264,-3.5237,-3.5318,-3.5331,-3.5407,-3.5434,-3.545,-3.5464,-3.5434,-3.5551,-3.5562,-3.5572,-3.5607,-3.5621,-3.545,-3.545,-3.5449,-3.5449,0,-3.5174,-3.522,-3.5264,-3.5299,-3.5325,-3.5379,-3.5375,-3.5402,-3.539,-3.5391,-3.5454,-3.5469,-3.5505,-3.5523,-3.5511,-3.5597,-3.5581,-3.5553,-3.5504,-3.5591,-3.5624,-3.5637,-3.5456,-3.5455,-3.5453,-3.5452,0,0,-3.5315,-3.5343,-3.5359,-3.5373,-3.5399,-3.5433,-3.5485,-3.5522,-3.5545,-3.557,-3.5611,-3.5668,-3.5641,-3.5661,-3.5651,-3.5687,-3.5771,-3.5654,-3.5654,-3.5673,-3.5863,-3.5882,-3.5898,-3.5755,-3.5758,-3.576,-3.586,0,-3.5419,-3.551,-3.5501,-3.5587,-3.5627,-3.5598,-3.5643,-3.5662,-3.5665,-3.5699,-3.5701,-3.574,-3.5704,-3.5715,-3.575,-3.5753,-3.5808,-3.5746,-3.5792,-3.5793,-3.5784,-3.5915,-3.5936,-3.6029,-3.5873,-3.5875,-3.5877,0,-3.5552,-3.5582,-3.5672,-3.5689,-3.5706,-3.5746,-3.5778,-3.5812,-3.5832,-3.5832,-3.5853,-3.5836,-3.5887,-3.5839,-3.5907,-3.5865,-3.5883,-3.5888,-3.5891,-3.5892,-3.5838,-3.5918,-3.6059,-3.6072,-3.5897,-3.5895,-3.5894,0,-3.5643,-3.5706,-3.5767,-3.5781,-3.5803,-3.5832,-3.5842,-3.586,-3.5882,-3.591,-3.5923,-3.5957,-3.5974,-3.6,-3.5991,-3.5958,-3.606,-3.6012,-3.6059,-3.6059,-3.608,-3.6078,-3.6223,-3.6096,-3.6096,-3.6096,-3.6096,0,-3.5758,-3.5813,-3.5808,-3.5845,-3.5906,-3.5895,-3.5955,-3.5961,-3.5977,-3.6014,-3.5991,-3.6026,-3.6015,-3.6049,-3.6043,-3.6098,-3.6107,-3.6106,-3.6104,-3.6107,-3.6107,-3.6117,-3.6109,-3.61,-3.6099,-3.6098,-3.6097,0,-3.5869,-3.5868,-3.5932,-3.5948,-3.5953,-3.5997,-3.6009,-3.6044,-3.6045,-3.6091,-3.6102,-3.6103,-3.6141,-3.6136,-3.618,-3.6176,-3.6244,-3.6235,-3.6237,-3.6234,-3.628,-3.6274,-3.6434,-3.6454,-3.6317,-3.6318,-3.6319,0,-3.5941,-3.5983,-3.6003,-3.6027,-3.6039,-3.6077,-3.6099,-3.609,-3.6114,-3.614,-3.617,-3.6207,-3.6236,-3.6299,-3.6302,-3.6335,-3.6324,-3.6378,-3.6329,-3.633,-3.6322,-3.6318,-3.6321,-3.6387,-3.6389,-3.639,-3.6391,0,-3.6069,-3.6066,-3.6099,-3.6132,-3.616,-3.6185,-3.6208,-3.6228,-3.622,-3.6248,-3.6287,-3.631,-3.6353,-3.6389,-3.642,-3.6429,-3.6408,-3.6407,-3.6419,-3.6421,-3.642,-3.6418,-3.626,-3.6402,-3.6401,-3.64,-3.64,-3.6399,-3.6161,-3.6196,-3.6215,-3.6252,-3.6269,-3.629,-3.6323,-3.6328,-3.6361,-3.6396,-3.6388,-3.6432,-3.645,-3.6488,-3.6501,-3.6534,-3.6514,-3.6532,-3.6536,-3.654,-3.6544,-3.6417,-3.654,-3.6539,-3.6539,-3.6539,-3.6539,0,-3.6285,-3.6296,-3.6331,-3.6363,-3.6392,-3.6372,-3.6395,-3.642,-3.6459,-3.6478,-3.6507,-3.6551,-3.6586,-3.6592,-3.6624,-3.665,-3.6641,-3.6658,-3.6655,-3.6657,-3.6561,-3.6547,-3.6665,-3.6665,-3.6664,-3.6664,-3.6664,-3.6664,-3.6353,-3.641,-3.641,-3.6474,-3.6484,-3.6527,-3.6542,-3.6561,-3.6576,-3.6626,-3.6655,-3.6659,-3.6673,-3.6706,-3.6736,-3.6737,-3.6748,-3.6769,-3.6766,-3.6676,-3.6664,-3.6652,-3.6637,-3.6772,-3.6773,-3.6858,-3.6859,-3.6859]},{"header":{"parameterUnit":"m.s-1","parameterCategory":1,"la1":30.2991,"la2":30.254,"lo1":-89.0895,"lo2":-89.0444,"dy":0.0017,"dx":0.0017,"nx":28,"ny":28,"refTime":"2024-08-29T09:00:00:Z","depth":0,"parameterNumber":3,"parameterNumberName":"V-component_of_WINDS"},"data":[0,0,0,0,0,0,0,0,0,0,0,0,0,0,0,0,0,0,0,0,0,0,0,0,0,0,0,0,0,0,0,0,0,0,0,0,0,0,0,0,0,0,0,0,0,0,0,0,0,0,0,0,0,0,0,0,0,0,3.5203,3.5204,0,3.5322,3.5323,3.5325,3.53,3.5298,3.5295,3.5293,3.541,3.5415,3.542,0,0,0,0,0,0,0,0,0,0,0,0,0,3.4948,3.4953,3.5203,3.5204,3.5206,3.5322,3.5323,3.5325,3.53,3.5298,3.5295,3.5292,3.5408,3.5414,3.542,0,0,0,0,0,0,0,0,0,0,0,0,0,3.5062,3.4955,3.5203,3.5208,3.5209,3.5321,3.5323,3.5325,3.5301,3.5297,3.5294,3.5291,3.5406,3.5413,3.5421,3.5534,0,0,3.5444,3.5448,0,0,0,0,0,0,0,0,3.5056,3.5071,3.5205,3.5208,3.521,3.5293,3.5276,3.5395,3.5302,3.5266,3.5293,3.529,3.5373,3.5383,3.5412,3.5539,3.5544,3.5445,3.545,3.5453,3.5455,0,0,0,0,0,0,0,3.5048,3.5066,3.525,3.5207,3.521,3.5202,3.5214,3.5299,3.5336,3.5269,3.5267,3.5282,3.5373,3.5405,3.5415,3.5546,3.5445,3.5452,3.5456,3.5459,3.5769,3.5772,0,0,0,0,0,0,3.5039,3.506,3.5246,3.5253,3.5123,3.5209,3.5223,3.5269,3.5335,3.5342,3.5285,3.528,3.5394,3.5406,3.5419,3.5554,3.5453,3.546,3.5465,3.5765,3.577,3.5773,0,0,0,0,0,0,3.5034,3.5056,3.5241,3.5156,3.5179,3.5217,3.5269,3.5273,3.5305,3.5347,3.5353,3.5311,3.5392,3.5408,3.5505,3.5558,3.5464,3.5471,3.5761,3.5767,3.5772,3.5826,0,0,0,0,0,0,3.5026,3.5054,3.5099,3.5158,3.5184,3.5328,3.5272,3.5278,3.5319,3.5315,3.5373,3.538,3.539,3.5494,3.5513,3.5567,3.5477,3.5756,3.5763,3.577,3.582,3.5833,3.5844,0,0,0,0,0,3.5017,3.5109,3.5101,3.5124,3.5241,3.5331,3.5346,3.5358,3.5323,3.5368,3.5394,3.5378,3.5549,3.5504,3.5525,3.5582,3.5753,3.5761,3.5769,3.5814,3.583,3.5843,0,0,0,0,0,0,3.5054,3.5117,3.5109,3.5223,3.5272,3.5327,3.5383,3.5374,3.5433,3.5426,3.5437,3.545,3.5549,3.5575,3.5524,3.5694,3.5646,3.5659,3.5673,3.5688,3.57,3.5691,3.5483,0,0,0,0,0,3.5075,3.5145,3.5195,3.529,3.5315,3.5345,3.5384,3.5389,3.544,3.546,3.5494,3.5542,3.5607,3.5649,3.5711,3.5823,3.5835,3.5873,3.5885,3.5894,3.5905,3.5965,3.5982,3.58,3.58,3.58,0,0,3.512,3.5163,3.5206,3.5299,3.5337,3.5407,3.5363,3.5438,3.5489,3.5471,3.5565,3.5592,3.5646,3.5751,3.5799,3.5776,3.5958,3.5905,3.5912,3.5917,3.5975,3.5992,3.6007,3.5806,3.5805,3.5804,0,0,3.5236,3.5277,3.536,3.54,3.5459,3.5478,3.5498,3.5554,3.5571,3.5666,3.5654,3.5713,3.5825,3.5864,3.5898,3.6028,3.6014,3.6048,3.611,3.6168,3.6182,3.6195,3.624,3.6256,3.6058,3.6058,3.6058,0,3.5284,3.539,3.5403,3.548,3.552,3.5508,3.5591,3.5628,3.5704,3.5731,3.5705,3.5844,3.588,3.5993,3.6025,3.6054,3.6075,3.6041,3.618,3.6192,3.6204,3.6247,3.6264,3.6062,3.6062,3.6061,3.6061,0,3.5444,3.5518,3.5578,3.5653,3.57,3.5779,3.5802,3.5848,3.5848,3.5869,3.5965,3.6007,3.6077,3.6104,3.6105,3.6217,3.6201,3.6177,3.6129,3.6225,3.6265,3.6282,3.6067,3.6066,3.6065,3.6064,0,0,3.5588,3.5669,3.569,3.5723,3.5788,3.5844,3.5922,3.5991,3.6029,3.6082,3.6146,3.624,3.6218,3.6257,3.6262,3.6313,3.6412,3.6283,3.6285,3.6305,3.6536,3.6552,3.6571,3.6403,3.6407,3.6409,3.6531,0,3.5709,3.5849,3.5862,3.5986,3.6053,3.6042,3.6109,3.6155,3.6176,3.6234,3.6257,3.6323,3.629,3.6314,3.6364,3.6389,3.6458,3.6381,3.6461,3.6464,3.6447,3.6593,3.6611,3.6724,3.6547,3.6549,3.6551,0,3.587,3.5928,3.6059,3.6113,3.6142,3.6202,3.6266,3.6323,3.6373,3.6385,3.6428,3.6426,3.6504,3.6454,3.656,3.6507,3.654,3.6558,3.6562,3.6569,3.6513,3.6602,3.676,3.6777,3.6577,3.6575,3.6573,0,3.5959,3.6071,3.6163,3.6192,3.6257,3.63,3.6329,3.6376,3.6417,3.6472,3.6498,3.6561,3.6595,3.6643,3.6657,3.662,3.6762,3.6713,3.6772,3.6772,3.6802,3.68,3.6966,3.6826,3.6825,3.6825,3.6825,0,3.6093,3.6173,3.6204,3.6261,3.635,3.6363,3.645,3.6476,3.6518,3.6578,3.6572,3.6628,3.6644,3.6702,3.6713,3.6798,3.6814,3.6824,3.6826,3.6824,3.6823,3.6846,3.6838,3.683,3.6829,3.6828,3.6827,0,3.6208,3.6232,3.6332,3.6386,3.6401,3.6464,3.6509,3.6562,3.6582,3.6658,3.6677,3.6708,3.6776,3.6795,3.6876,3.6884,3.6984,3.6979,3.6967,3.6967,3.7024,3.7018,3.721,3.7235,3.7079,3.708,3.7082,0,3.6292,3.6353,3.6414,3.6454,3.6485,3.655,3.6592,3.6606,3.6649,3.6711,3.6756,3.6824,3.6879,3.6988,3.7016,3.7078,3.7074,3.7137,3.7083,3.7079,3.7073,3.7069,3.7075,3.7147,3.7148,3.715,3.7151,0,3.6437,3.6445,3.6506,3.6571,3.6621,3.6672,3.6722,3.6754,3.6776,3.6824,3.6894,3.6937,3.702,3.7087,3.7149,3.7176,3.7167,3.7168,3.7184,3.7183,3.7173,3.7178,3.6994,3.7163,3.7162,3.7161,3.716,3.716,3.6538,3.6592,3.6642,3.671,3.6748,3.6794,3.6847,3.6874,3.6933,3.7003,3.7007,3.7083,3.713,3.7213,3.7244,3.7302,3.7283,3.7307,3.7313,3.7319,3.7323,3.7165,3.7313,3.7313,3.7313,3.7312,3.7312,0,3.6682,3.6714,3.6776,3.6845,3.6897,3.6885,3.6939,3.6983,3.705,3.7096,3.715,3.7229,3.7294,3.7327,3.739,3.743,3.7427,3.7446,3.7443,3.7449,3.7337,3.7316,3.7447,3.7447,3.7447,3.7447,3.7447,3.7447,3.6763,3.6853,3.6867,3.6975,3.7005,3.7081,3.7112,3.7153,3.719,3.7279,3.7333,3.7355,3.7395,3.7461,3.7519,3.7527,3.7549,3.7571,3.7576,3.7471,3.7457,3.7444,3.7424,3.7576,3.7576,3.7683,3.7684,3.7685]}]]